This is the latest recevied weather packets stored in our database for station/object AB4KN. If no packets are shown the sender has not sent any weather packets the latest 10 day(s).
| Time | Temp. | Humidity | Pressure | Rain* | Wind** | Luminosity | Snow |
|---|---|---|---|---|---|---|---|
| 1777580780 | 21.67° C | 58% | 1016.6 hPa | 0 mm | - | 62 W/m² | - |
| 1777580477 | 21.67° C | 56% | 1016.2 hPa | 0 mm | - | 76 W/m² | - |
| 1777580171 | 21.67° C | 59% | 1016.7 hPa | 0 mm | - | 84 W/m² | - |
| 1777579869 | 21.67° C | 57% | 1016.6 hPa | 0 mm | - | 91 W/m² | - |
| 1777579568 | 21.67° C | 55% | 1016.7 hPa | 0 mm | - | 87 W/m² | - |
| 1777579262 | 21.67° C | 55% | 1016.8 hPa | 0 mm | - | 90 W/m² | - |
| 1777578958 | 21.67° C | 53% | 1016.8 hPa | 0 mm | - | 94 W/m² | - |
| 1777578653 | 21.67° C | 52% | 1016.7 hPa | 0 mm | - | 94 W/m² | - |
| 1777578352 | 21.67° C | 53% | 1016.8 hPa | 0 mm | - | 91 W/m² | - |
| 1777578049 | 21.67° C | 54% | 1016.7 hPa | 0 mm | - | 95 W/m² | - |
| 1777577744 | 21.67° C | 51% | 1016.8 hPa | 0 mm | - | 106 W/m² | - |
| 1777577441 | 21.67° C | 54% | 1016.8 hPa | 0 mm | - | 98 W/m² | - |
| 1777577138 | 21.67° C | 55% | 1016.8 hPa | 0 mm | - | 98 W/m² | - |
| 1777576834 | 21.67° C | 56% | 1016.8 hPa | 0 mm | - | 101 W/m² | - |
| 1777576533 | 21.11° C | 57% | 1016.7 hPa | 0 mm | - | 106 W/m² | - |
| 1777576230 | 21.11° C | 59% | 1016.7 hPa | 0 mm | - | 116 W/m² | - |
| 1777575926 | 21.11° C | 58% | 1016.6 hPa | 0 mm | - | 111 W/m² | - |
| 1777575622 | 21.11° C | 58% | 1016.8 hPa | 0 mm | - | 110 W/m² | - |
| 1777575318 | 21.11° C | 57% | 1016.7 hPa | 0 mm | - | 117 W/m² | - |
| 1777575014 | 21.67° C | 58% | 1016.8 hPa | 0 mm | - | 123 W/m² | - |
| 1777574710 | 21.11° C | 60% | 1017.1 hPa | 0 mm | - | 117 W/m² | - |
| 1777574408 | 21.67° C | 57% | 1017.2 hPa | 0 mm | - | 124 W/m² | - |
| 1777574103 | 21.11° C | 58% | 1016.9 hPa | 0 mm | - | 119 W/m² | - |
| 1777573798 | 21.11° C | 55% | 1016.9 hPa | 0 mm | - | 127 W/m² | - |
| 1777573494 | 21.11° C | 59% | 1016.8 hPa | 0 mm | - | 128 W/m² | - |
* Rain latest hour (hover to see other rain measurements)
** Current wind speed in m/s (hover to see current wind gust speed)